Wind_Speed
35 33 31 30 29 27 26 26 26 26 27 27 25 23 24 25 25 25 25 26 27 27 27 26 26 27 27 26 25 26 26 26 26 26 26 25 26 27 28 28 29 29 29
35 34 33 31 30 29 27 26 26 27 27 28 26 26 25 26 26 26 27 28 28 29 28 28 27 26 27 26 26 27 27 27 28 27 28 29 29 29 30 31 32 32 33
35 34 33 32 31 30 28 27 27 27 27 27 28 27 26 27 28 27 28 28 28 28 27 26 25 24 25 25 24 25 26 27 27 27 28 29 30 30 30 31 32 34 35
33 34 33 33 32 30 28 27 26 25 27 28 28 26 26 26 27 28 29 27 27 27 26 24 24 24 23 23 24 25 25 26 27 28 29 30 30 31 31 33 34 35 36
30 31 31 31 31 30 28 27 27 27 27 27 26 27 26 25 26 28 29 29 28 27 26 24 23 23 23 23 24 24 24 25 27 29 30 31 31 33 34 36 37 38 39
26 28 29 28 29 29 28 28 27 27 26 25 25 25 23 22 25 27 26 27 27 26 25 24 23 22 23 23 23 24 25 26 27 28 30 32 33 35 37 38 39 40 42
23 25 26 27 27 26 26 26 25 24 23 23 24 23 21 20 22 22 21 23 25 25 23 22 22 23 24 24 23 24 26 28 29 31 32 34 35 37 38 40 41 43 44
20 21 23 24 24 24 25 25 23 22 22 22 22 22 20 20 19 20 20 20 21 22 21 22 22 23 23 24 25 27 28 29 31 33 34 36 38 39 40 42 44 45 47
20 20 21 23 23 23 23 23 22 22 22 22 21 21 21 19 18 18 18 18 19 19 21 22 23 24 25 26 28 29 30 32 34 35 37 39 40 41 42 43 45 46 47
21 20 21 21 22 21 21 21 21 22 21 21 21 21 20 19 18 18 18 19 20 21 22 22 23 25 27 28 30 31 33 35 36 37 38 39 41 42 43 44 46 47 48
22 21 22 22 21 22 22 22 22 21 21 21 22 22 21 21 21 21 21 21 22 23 24 25 26 28 30 32 33 34 36 37 38 38 39 40 41 42 44 45 46 47 47
20 21 22 22 22 21 22 22 22 22 22 22 22 23 22 22 22 22 23 23 24 25 27 28 30 32 33 34 35 36 36 37 38 39 40 41 42 43 44 44 45 45 46
17 18 19 20 21 21 21 21 22 22 22 23 23 23 23 24 24 25 25 26 27 29 30 32 33 33 34 35 35 36 36 37 38 39 40 40 41 42 42 43 43 44 44
15 16 18 19 20 20 21 22 23 23 23 24 24 25 25 25 26 27 27 28 29 30 32 33 33 33 34 34 35 35 36 36 37 38 39 39 40 40 40 40 40 40 40
14 15 16 17 19 20 21 22 22 23 23 24 25 25 25 26 27 28 29 29 30 30 30 31 32 32 33 34 34 34 35 36 36 37 37 37 37 37 37 37 37 37 36
13 14 16 17 18 19 21 22 22 23 24 24 25 25 26 27 27 28 28 29 29 30 30 31 31 31 31 32 33 33 34 34 35 35 34 34 34 34 33 33 33 32 31
14 16 17 18 19 20 20 21 22 23 23 24 24 25 25 26 27 27 27 28 28 28 28 28 29 29 30 31 31 31 32 32 32 32 31 30 30 29 28 28 27 27 26
14 15 16 17 18 20 20 21 21 21 21 22 22 23 23 24 24 25 25 25 26 27 27 28 29 29 30 30 30 30 30 29 28 28 27 26 26 24 24 23 23 23 22
14 15 16 17 18 19 19 19 19 20 20 21 21 21 22 22 23 23 24 24 25 25 26 27 27 27 28 27 27 26 25 25 24 23 23 22 21 21 21 20 20 20 20
13 14 15 16 17 18 18 19 19 19 20 20 20 21 21 21 22 22 22 23 23 23 23 24 24 23 22 22 21 21 20 20 20 20 19 19 19 19 19 18 19 19 18
12 13 14 15 16 16 17 18 18 19 19 19 19 20 20 20 20 21 21 21 21 21 21 20 19 18 18 18 18 18 17 17 17 17 17 17 17 17 17 17 17 17 17
10 11 12 13 13 14 15 15 16 17 17 18 18 18 18 19 19 19 19 19 18 18 17 17 17 16 16 16 16 16 16 16 16 16 15 15 15 16 16 16 16 16 16
9 9 10 11 12 12 13 14 15 15 15 16 16 17 17 17 17 17 17 17 16 16 15 15 15 15 15 15 14 14 14 15 15 14 14 14 15 15 15 15 16 16 16
8 9 10 11 11 12 13 14 14 15 15 15 15 15 15 15 15 16 16 15 14 14 14 13 13 13 13 12 12 12 13 13 13 12 13 14 14 14 15 15 15 15 15
7 8 9 10 11 11 12 13 13 14 14 15 15 15 14 14 14 14 13 13 13 12 12 11 11 11 10 10 10 10 11 11 11 11 12 13 13 14 15 15 15 15 15
7 7 8 8 9 10 11 12 12 13 13 13 13 13 13 12 12 11 11 11 10 10 10 9 9 9 9 9 9 9 10 10 10 11 12 12 13 14 15 15 15 14 14
Wind_Direction
237 239 241 244 249 253 256 258 260 260 257 252 253 252 251 249 247 246 243 241 241 241 243 243 244 247 249 252 253 254 255 258 261 264 268 272 275 276 277 279 280 280 279
235 239 242 245 251 255 257 257 258 262 263 260 256 256 252 246 246 245 243 243 245 242 244 245 246 250 251 251 253 254 256 260 262 265 268 271 274 277 278 279 280 280 279
234 237 241 245 250 254 258 258 260 263 264 262 260 257 255 252 248 247 246 246 246 243 243 242 246 250 249 253 257 259 260 262 264 267 271 273 274 277 279 280 280 280 279
233 236 240 244 249 253 256 258 261 264 268 266 267 267 264 257 251 249 245 245 246 247 246 248 249 252 254 257 261 265 266 267 268 269 272 275 277 279 280 280 280 280 280
236 238 240 243 246 251 255 257 262 264 267 271 274 274 273 266 255 250 245 243 243 245 247 249 252 255 257 261 262 266 269 270 272 272 273 274 277 279 280 281 281 281 280
237 239 241 244 246 249 254 257 261 266 268 272 276 282 276 269 257 251 246 244 241 243 246 250 253 257 261 264 268 270 270 273 275 277 278 278 279 281 281 281 282 283 282
241 240 242 246 247 248 252 257 260 266 271 274 276 280 273 268 261 254 248 244 243 245 249 252 258 264 267 269 274 275 276 277 277 278 279 279 280 281 282 282 283 284 284
246 242 241 243 247 250 254 258 260 265 269 273 276 279 276 274 269 262 257 254 253 251 258 262 267 271 274 275 276 277 278 278 278 279 279 280 281 282 282 283 283 284 284
251 247 244 245 249 252 255 258 263 266 268 273 275 276 277 278 273 269 265 265 264 266 269 270 273 275 276 276 277 278 279 280 281 281 281 282 282 282 283 284 284 285 285
255 254 251 250 251 252 255 257 261 265 268 271 273 276 276 275 272 275 270 271 270 269 269 271 275 276 278 280 280 281 282 283 284 284 284 285 284 284 285 285 286 285 286
259 256 254 252 252 253 254 256 260 263 266 266 267 270 270 273 272 273 273 272 271 272 274 276 278 280 282 283 284 284 284 285 285 286 286 286 286 286 287 287 286 286 287
259 256 253 251 250 252 255 256 260 262 263 264 265 267 268 270 271 272 272 272 273 276 278 280 281 282 283 283 284 284 285 286 287 287 287 287 287 287 287 287 287 287 287
264 257 251 249 249 252 255 258 259 261 262 263 264 265 268 269 271 273 274 274 276 278 279 281 282 283 284 284 285 286 287 287 287 287 288 288 288 288 288 288 288 289 290
260 254 251 249 249 252 254 255 257 259 260 263 265 268 269 270 272 274 276 276 277 279 280 282 283 284 285 285 286 287 287 288 288 288 289 289 290 290 290 290 290 291 291
254 250 248 247 246 249 254 257 259 261 262 264 266 270 272 273 274 275 276 278 280 280 281 282 284 285 286 286 287 288 289 289 290 290 290 291 292 292 292 292 292 293 293
252 253 254 254 252 253 257 261 264 265 266 268 270 271 272 274 275 276 278 280 280 281 283 284 285 286 287 288 289 290 290 291 291 291 292 293 294 295 295 295 295 296 297
256 257 258 258 258 260 262 264 266 267 269 270 270 271 273 275 277 279 280 281 283 284 285 285 286 288 289 290 292 293 293 293 293 294 295 296 297 297 298 299 299 300 301
258 260 260 260 262 264 266 267 268 269 271 271 273 275 277 279 280 281 282 283 284 285 285 286 288 289 291 292 294 295 295 294 295 296 297 297 298 299 300 302 304 305 307
260 264 263 264 266 267 268 269 271 272 274 275 276 277 278 280 282 283 284 285 285 286 288 288 289 291 292 293 294 295 296 296 297 297 298 299 300 301 303 305 308 309 310
266 267 267 268 269 270 271 273 274 275 276 276 277 279 280 282 284 285 286 287 288 289 291 291 292 293 294 295 296 298 300 300 299 300 300 300 302 304 306 308 310 313 314
269 270 272 274 274 275 275 276 277 277 277 277 278 280 281 283 284 285 287 289 291 293 293 293 294 295 296 297 297 298 301 302 303 303 303 304 306 307 309 311 314 317 318
276 276 281 282 282 281 279 279 279 278 277 278 280 281 282 283 285 286 288 289 292 294 295 296 296 296 295 295 297 298 300 302 303 304 306 309 311 311 313 315 317 319 321
287 288 288 287 284 282 282 284 283 283 283 284 286 287 287 286 285 286 288 290 293 294 296 298 297 297 296 297 298 300 302 302 303 305 308 312 314 315 316 319 321 323 323
297 293 291 289 286 284 286 286 287 285 285 286 288 289 288 288 287 287 288 289 291 293 297 299 300 301 301 300 301 303 306 307 308 310 312 315 316 318 320 323 324 324 325
316 308 301 297 294 293 293 292 291 288 288 288 289 289 290 291 289 288 288 289 291 293 297 299 300 304 307 308 309 310 311 314 316 318 320 321 321 323 325 326 327 328 328
334 324 317 310 306 304 301 298 296 294 293 290 289 289 289 292 292 291 291 292 292 293 296 298 303 309 313 315 315 318 321 323 324 324 325 326 327 327 328 329 330 331 331
Height
5807 5811 5814 5817 5818 5819 5821 5822 5823 5823 5823 5823 5824 5824 5826 5828 5829 5830 5832 5834 5835 5836 5838 5839 5840 5841 5842 5843 5844 5844 5844 5845 5845 5845 5845 5844 5844 5843 5842 5841 5840 5839 5838
5800 5804 5808 5811 5812 5814 5815 5816 5817 5817 5817 5817 5817 5818 5819 5820 5822 5823 5826 5828 5829 5830 5832 5833 5834 5834 5836 5837 5837 5838 5838 5838 5838 5838 5838 5838 5838 5836 5835 5834 5833 5832 5830
5794 5798 5801 5804 5806 5808 5809 5810 5811 5812 5812 5811 5812 5812 5813 5814 5815 5817 5820 5822 5823 5824 5826 5826 5828 5828 5829 5830 5831 5832 5831 5832 5832 5832 5831 5831 5830 5829 5828 5826 5825 5823 5822
5788 5792 5795 5798 5800 5802 5804 5805 5805 5806 5807 5806 5806 5807 5807 5808 5809 5811 5813 5815 5817 5818 5820 5821 5822 5823 5824 5825 5825 5825 5825 5826 5825 5825 5824 5823 5822 5821 5820 5819 5817 5815 5813
5782 5785 5789 5792 5794 5796 5798 5799 5800 5801 5801 5802 5802 5802 5801 5802 5802 5804 5806 5808 5810 5813 5814 5815 5816 5818 5819 5819 5819 5819 5819 5819 5818 5818 5817 5815 5814 5813 5812 5810 5809 5807 5804
5777 5780 5783 5786 5789 5791 5792 5794 5794 5795 5795 5796 5797 5796 5796 5796 5797 5798 5800 5802 5805 5807 5808 5810 5811 5812 5812 5813 5813 5813 5812 5812 5811 5810 5809 5808 5806 5804 5802 5801 5799 5797 5795
5772 5775 5777 5780 5783 5785 5786 5788 5788 5789 5789 5790 5791 5791 5792 5792 5792 5792 5794 5796 5798 5801 5802 5804 5805 5806 5806 5806 5806 5806 5805 5804 5804 5803 5801 5799 5797 5795 5793 5791 5788 5786 5784
5768 5770 5772 5774 5776 5778 5780 5781 5782 5783 5784 5786 5787 5787 5787 5787 5788 5789 5790 5791 5793 5794 5796 5798 5798 5799 5799 5799 5799 5799 5798 5797 5796 5794 5793 5790 5788 5786 5783 5781 5778 5775 5772
5763 5764 5766 5768 5770 5772 5773 5775 5777 5778 5779 5780 5781 5781 5782 5783 5783 5784 5785 5786 5787 5789 5790 5791 5791 5791 5792 5792 5791 5791 5790 5789 5787 5785 5783 5781 5778 5775 5772 5769 5767 5764 5760
5758 5759 5761 5763 5765 5766 5768 5769 5771 5773 5773 5775 5776 5777 5777 5778 5779 5779 5780 5781 5782 5783 5784 5784 5784 5784 5784 5783 5783 5782 5781 5779 5777 5775 5772 5770 5767 5764 5761 5758 5755 5751 5748
5752 5754 5755 5757 5759 5761 5762 5764 5765 5767 5768 5769 5770 5771 5772 5773 5774 5774 5775 5775 5776 5777 5777 5777 5776 5776 5776 5775 5774 5772 5770 5768 5766 5763 5761 5758 5756 5752 5749 5746 5742 5738 5735
5746 5747 5749 5751 5753 5755 5757 5758 5759 5760 5762 5763 5764 5765 5766 5766 5767 5768 5768 5769 5769 5769 5769 5769 5768 5767 5766 5765 5764 5762 5759 5757 5755 5752 5750 5747 5744 5741 5737 5733 5730 5726 5722
5741 5742 5743 5745 5747 5748 5750 5752 5753 5754 5756 5756 5757 5758 5759 5760 5760 5761 5761 5761 5761 5761 5760 5760 5759 5758 5756 5754 5753 5751 5748 5746 5744 5741 5738 5735 5732 5729 5725 5721 5718 5714 5710
5736 5737 5738 5739 5741 5742 5744 5746 5747 5748 5749 5750 5751 5751 5752 5752 5753 5753 5753 5753 5753 5752 5751 5750 5749 5747 5746 5744 5742 5740 5738 5736 5733 5730 5727 5724 5721 5717 5713 5710 5706 5702 5698
5731 5732 5733 5734 5735 5737 5738 5740 5740 5741 5742 5743 5743 5744 5744 5744 5745 5745 5745 5744 5743 5742 5742 5741 5739 5738 5736 5734 5732 5730 5728 5725 5722 5720 5717 5713 5710 5706 5703 5699 5695 5691 5688
5727 5728 5729 5729 5730 5731 5732 5733 5734 5735 5735 5736 5736 5737 5737 5737 5736 5736 5736 5735 5734 5734 5733 5731 5730 5728 5727 5725 5723 5720 5718 5715 5712 5709 5706 5703 5700 5696 5693 5689 5686 5682 5679
5723 5724 5724 5725 5725 5726 5726 5727 5728 5728 5728 5729 5729 5729 5729 5729 5728 5728 5727 5726 5726 5725 5723 5722 5721 5719 5717 5715 5713 5711 5708 5706 5703 5700 5697 5694 5691 5688 5685 5681 5678 5675 5671
5719 5719 5720 5720 5720 5721 5721 5721 5722 5722 5722 5722 5722 5722 5722 5721 5721 5720 5719 5718 5718 5717 5716 5714 5712 5711 5709 5706 5704 5702 5699 5697 5694 5692 5689 5687 5684 5681 5678 5675 5672 5669 5665
5715 5715 5715 5715 5715 5716 5716 5716 5716 5716 5716 5716 5716 5715 5715 5714 5714 5713 5712 5712 5711 5709 5708 5707 5705 5703 5701 5699 5697 5694 5692 5690 5687 5685 5683 5680 5678 5676 5673 5670 5667 5663 5660
5710 5710 5710 5710 5710 5710 5711 5711 5711 5710 5710 5710 5710 5709 5709 5708 5707 5707 5706 5705 5704 5702 5701 5699 5698 5696 5694 5692 5690 5688 5686 5684 5682 5680 5678 5675 5673 5670 5668 5665 5662 5659 5656
5707 5706 5706 5706 5706 5705 5705 5705 5705 5705 5704 5704 5704 5704 5703 5702 5702 5701 5700 5699 5697 5696 5694 5693 5691 5690 5688 5687 5685 5684 5682 5680 5677 5675 5673 5671 5668 5666 5663 5660 5658 5655 5652
5703 5702 5702 5702 5701 5701 5701 5700 5700 5699 5699 5699 5698 5698 5697 5697 5696 5695 5694 5693 5692 5691 5689 5687 5686 5685 5683 5682 5680 5679 5677 5675 5673 5671 5669 5667 5664 5662 5659 5656 5654 5651 5648
5700 5699 5699 5698 5698 5697 5697 5696 5696 5695 5694 5694 5693 5692 5692 5691 5690 5689 5689 5688 5687 5685 5684 5683 5682 5680 5679 5677 5676 5675 5673 5671 5669 5667 5665 5663 5661 5658 5656 5653 5650 5647 5644
5697 5697 5696 5695 5694 5694 5693 5692 5691 5690 5689 5689 5688 5688 5687 5686 5685 5684 5684 5683 5682 5681 5680 5679 5678 5676 5675 5673 5672 5671 5669 5668 5666 5664 5662 5660 5658 5655 5653 5650 5647 5644 5641
5695 5694 5693 5692 5691 5690 5689 5688 5687 5686 5685 5684 5683 5683 5682 5681 5680 5680 5679 5678 5677 5677 5676 5675 5674 5673 5671 5670 5669 5667 5666 5664 5663 5661 5659 5657 5655 5652 5649 5647 5644 5641 5638
5694 5692 5691 5690 5688 5687 5685 5684 5683 5681 5680 5679 5679 5678 5677 5677 5676 5675 5675 5674 5674 5673 5672 5672 5671 5670 5669 5667 5666 5665 5664 5662 5661 5659 5657 5654 5652 5649 5647 5644 5641 5638 5635